FENGYUN 1C DEB, 31468

Orbit data source: Space-Track

FENGYUN 1C DEB, 31468 is space debris in SSO originally from a launch on Mon, 10 May 1999 UTC launched from the Taiyaun Space Center, China (TSC). Fengyun 1C debris stems from the Chinese weather satellite Fengyun-1C, which was intentionally destroyed by a Chinese anti-satellite missile in 2007. This event dramatically increased the amount of space debris, with thousands of trackable fragments posing hazards to satellites and human spaceflight. The Fengyun 1C debris cloud has become a focal point in discussions about space sustainability and the need for international regulations to prevent the creation of new debris.

Loading next visibility...
Identifier
31468, 1999-025BVG
Orbit
SSO
Country
Flag of CNCN / PRC
Related business
Manufacturer
Unknown
Mission
Spacecraft
Bus & Motor
Unknown
Mass
Unknown
Launch date (UTC)
1999-05-10 (26 years ago)
Launch vehicle
Unknown
Launch site
Taiyaun Space Center, China (TSC)
Object type
Payload
Rocket body
Debris
Shape & HBR
Unknown shape, 0.1 m
Radar Cross Section
Small (<0.1 m²)

Expand to show TLE details & history
Last TLE update: 3 days ago

TLE from 3 days ago
0 FENGYUN 1C DEB
1 31468U 99025BVG 25307.26396506  .00002449  00000-0  58728-3 0  9993
2 31468  98.1662 304.7667 0165567 288.0457  70.2758 14.46366769668015
Epoch: 2025-11-03T06:20Z
TLE epoch observation values (Epoch: 2025-11-03T06:20:06.581Z)
Latitude
0.00001°
Longitude
166.97144°
Altitude
702.483 km
Speed
7.525 km/s
True Right ascension
20h 19m 04s
True Declination
0° 00' 00"
Sunlit
Object was in daylight at epoch
Visualization orbit readout
Latitude
Unknown
Longitude
Unknown
Altitude
Unknown
Speed
Unknown
Apparent Right ascension
Unknown
Apparent Declination
Unknown
Sunlit
N/A
Visualization observer readout
Local Sidereal Time
00:11:16
Azimuth
Unknown
Elevation
Unknown
Doppler factor
Unknown
Orbital elements
Apogee altitude
852.401 km
Perigee altitude
616.873 km
Semi-major axis
7,112.774 km
Eccentricity
0.01656
Inclination
98.1662°
RAAN
304.7667°
Arg. of periapsis
288.0457°
True anomaly
72.07401°
Mean anomaly
70.2758°
Eccentric anomaly
71.17368°
Mean motion
3.61813 °/min
Orbital period
99.5 mins
BSTAR
0.00058728
Loading maneuver chart data...
Computing Atmospheric mass density...

Documentation

Showing up to 5 results
|